Weather History for La Junta, CO

Change the Weather History Date:

Monday, March 25, 2013

  Actual Average Record
Temperature  
Mean Temperature 28 °F 47 °F  
Max Temperature 41 °F 62 °F 86 °F (1976)
Min Temperature 15 °F 31 °F 4 °F (1955)
Degree Days  
Heating Degree Days 37 18  
Month to date heating degree days 583 545  
Since 1 July heating degree days 4359 4646  
Cooling Degree Days 0 0  
Month to date cooling degree days 0 0  
Year to date cooling degree days 0 0  
Moisture  
Dew Point 13 °F    
Average Humidity 55    
Maximum Humidity 84    
Minimum Humidity 25    
Precipitation  
Precipitation 0.00 in 0.03 in 0.09 in (1984)
Month to date precipitation 0.24 0.61  
Year to date precipitation 0.35 1.26  
Sea Level Pressure  
Sea Level Pressure 30.34 in    
Wind  
Wind Speed 4 mph (NE)    
Max Wind Speed 14 mph    
Max Gust Speed 18 mph    
Visibility 10 miles    
Events      
T = Trace of Precipitation, MM = Missing Value Source: NWS Daily Summary

Daily Weather History Graph

Daily Weather History Graph

Search for Another Location

Airport:

Trip Planner

Search our weather history database for the weather conditions in past years. The results will help you decide how hot, cold, wet, or windy it might be!

Date:

Astronomy

Mar. 25, 2013 Rise Set
Actual Time 6:49 AM MDT 7:10 PM MDT
Civil Twilight 6:23 AM MDT 7:37 PM MDT
Nautical Twilight 5:52 AM MDT 8:08 PM MDT
Astronomical Twilight 5:20 AM MDT 8:39 PM MDT
Moon 5:45 PM MDT (3/25) 5:32 AM MDT (3/25)
Length of Visible Light 13h 14m
Length of Day
12h 21m
Waxing Gibbous, 97% of the Moon is Illuminated
Mar 25
Waxing Gibbous
Mar 27
Full
Apr 2
Last Quarter
Apr 10
New
Apr 18
First Quarter

Hourly Weather History & Observations

Time (MDT) Temp. Windchill Dew Point Humidity Pressure Visibility Wind Dir Wind Speed Gust Speed Precip Events Conditions
12:53 AM 21.0 °F 12.4 °F 15.1 °F 78% 30.32 in 10.0 mi North 6.9 mph - N/A   Scattered Clouds
1:53 AM 21.0 °F 13.4 °F 15.1 °F 78% 30.32 in 10.0 mi North 5.8 mph - N/A   Overcast
2:53 AM 19.9 °F 12.1 °F 16.0 °F 85% 30.31 in 10.0 mi NNW 5.8 mph - N/A   Overcast
3:53 AM 19.0 °F - 14.0 °F 81% 30.31 in 10.0 mi Calm Calm - N/A   Overcast
4:53 AM 19.0 °F 13.9 °F 14.0 °F 81% 30.32 in 10.0 mi West 3.5 mph - N/A   Overcast
5:53 AM 17.1 °F - 12.0 °F 81% 30.34 in 10.0 mi Calm Calm - N/A   Clear
6:53 AM 17.1 °F - 12.0 °F 81% 30.36 in 10.0 mi Calm Calm - N/A   Clear
7:53 AM 19.9 °F - 14.0 °F 78% 30.37 in 10.0 mi Calm Calm - N/A   Clear
8:53 AM 23.0 °F - 12.9 °F 65% 30.37 in 10.0 mi Calm Calm - N/A   Clear
9:53 AM 26.1 °F - 12.0 °F 55% 30.37 in 10.0 mi Calm Calm - N/A   Clear
10:53 AM 27.0 °F - 14.0 °F 58% 30.38 in 10.0 mi Calm Calm - N/A   Clear
11:53 AM 30.9 °F - 16.0 °F 54% 30.36 in 10.0 mi Calm Calm - N/A   Clear
12:53 PM 33.1 °F - 15.1 °F 48% 30.35 in 10.0 mi Calm Calm - N/A   Clear
1:53 PM 34.0 °F - 12.9 °F 42% 30.33 in 10.0 mi Calm Calm - N/A   Mostly Cloudy
2:53 PM 37.9 °F 33.5 °F 12.9 °F 36% 30.31 in 10.0 mi NNW 5.8 mph - N/A   Partly Cloudy
3:53 PM 39.9 °F 35.8 °F 10.9 °F 31% 30.29 in 10.0 mi North 5.8 mph - N/A   Clear
4:53 PM 39.9 °F 35.8 °F 10.0 °F 29% 30.27 in 10.0 mi NE 5.8 mph - N/A   Clear
5:53 PM 39.9 °F 35.1 °F 7.0 °F 26% 30.28 in 10.0 mi NE 6.9 mph - N/A   Clear
6:53 PM 35.1 °F 26.9 °F 10.0 °F 35% 30.31 in 10.0 mi NE 11.5 mph - N/A   Clear
7:53 PM 30.0 °F 23.2 °F 12.0 °F 47% 30.34 in 10.0 mi ENE 6.9 mph - N/A   Clear
8:53 PM 27.0 °F 19.5 °F 12.9 °F 56% 30.36 in 10.0 mi ENE 6.9 mph - N/A   Clear
9:53 PM 24.1 °F 18.2 °F 12.9 °F 62% 30.38 in 10.0 mi East 4.6 mph - N/A   Clear
10:53 PM 24.1 °F 17.0 °F 12.0 °F 60% 30.37 in 10.0 mi SE 5.8 mph - N/A   Clear
11:53 PM 24.1 °F 17.0 °F 12.0 °F 60% 30.35 in 10.0 mi SE 5.8 mph - N/A   Clear